TimeEST,TemperatureF,Dew PointF,Humidity,Sea Level PressureIn,VisibilityMPH,Wind Direction,Wind SpeedMPH,Gust SpeedMPH,PrecipitationIn,Events,Conditions,WindDirDegrees,DateUTC
12:54 AM,46.0,42.1,86,30.21,7.0,WSW,5.8,-,0.04,Rain,Light Rain,250,2012-12-05 05:54:00
1:11 AM,46.4,42.8,87,30.20,6.0,Calm,Calm,-,0.01,Rain,Light Rain,0,2012-12-05 06:11:00
1:39 AM,44.6,42.8,93,30.21,8.0,SW,3.5,-,0.04,Rain,Light Rain,220,2012-12-05 06:39:00
1:54 AM,46.0,43.0,89,30.21,10.0,Calm,Calm,-,0.04,Rain,Light Rain,0,2012-12-05 06:54:00
2:54 AM,46.0,44.1,93,30.22,8.0,Calm,Calm,-,0.02,Rain,Light Rain,0,2012-12-05 07:54:00
3:54 AM,46.0,43.0,89,30.23,10.0,Calm,Calm,-,0.00,,Overcast,0,2012-12-05 08:54:00
4:54 AM,45.0,43.0,93,30.23,8.0,Calm,Calm,-,N/A,,Overcast,0,2012-12-05 09:54:00
5:54 AM,45.0,42.1,90,30.24,8.0,West,3.5,-,N/A,,Overcast,280,2012-12-05 10:54:00
6:54 AM,44.1,42.1,93,30.27,8.0,WSW,3.5,-,N/A,,Mostly Cloudy,250,2012-12-05 11:54:00
7:17 AM,44.6,42.8,93,30.27,8.0,West,3.5,-,N/A,,Mostly Cloudy,260,2012-12-05 12:17:00
7:54 AM,44.1,42.1,93,30.28,8.0,Calm,Calm,-,N/A,,Mostly Cloudy,0,2012-12-05 12:54:00
9:54 AM,45.0,39.9,82,30.31,10.0,West,8.1,-,N/A,,Overcast,270,2012-12-05 14:54:00
10:54 AM,46.0,39.9,79,30.32,10.0,Variable,3.5,-,N/A,,Overcast,0,2012-12-05 15:54:00
11:18 AM,46.4,39.2,76,30.31,10.0,Calm,Calm,-,N/A,,Overcast,0,2012-12-05 16:18:00
11:54 AM,48.0,41.0,77,30.30,10.0,South,4.6,-,N/A,,Mostly Cloudy,190,2012-12-05 16:54:00
12:54 PM,50.0,39.0,66,30.29,10.0,Calm,Calm,-,N/A,,Mostly Cloudy,0,2012-12-05 17:54:00
1:54 PM,50.0,37.0,61,30.28,10.0,SW,4.6,-,N/A,,Mostly Cloudy,220,2012-12-05 18:54:00
2:14 PM,50.0,37.4,62,30.26,10.0,WSW,5.8,-,N/A,,Scattered Clouds,250,2012-12-05 19:14:00
2:54 PM,50.0,36.0,59,30.26,10.0,WNW,5.8,-,N/A,,Scattered Clouds,300,2012-12-05 19:54:00
4:54 PM,50.0,33.1,52,30.27,10.0,NNW,4.6,-,N/A,,Partly Cloudy,330,2012-12-05 21:54:00
5:54 PM,46.9,33.1,59,30.28,10.0,NNW,5.8,-,N/A,,Clear,340,2012-12-05 22:54:00
6:54 PM,46.0,30.9,56,30.29,10.0,North,5.8,-,N/A,,Clear,10,2012-12-05 23:54:00
7:54 PM,44.1,30.9,60,30.30,10.0,NNE,5.8,-,N/A,,Clear,20,2012-12-06 00:54:00
8:54 PM,41.0,30.9,67,30.30,10.0,NE,5.8,-,N/A,,Clear,50,2012-12-06 01:54:00
9:54 PM,39.0,30.0,70,30.30,10.0,Calm,Calm,-,N/A,,Clear,0,2012-12-06 02:54:00
10:54 PM,37.9,30.0,73,30.30,10.0,ENE,4.6,-,N/A,,Clear,60,2012-12-06 03:54:00
11:54 PM,36.0,30.0,79,30.30,10.0,Calm,Calm,-,N/A,,Clear,0,2012-12-06 04:54:00